Date,TemperatureHighF,TemperatureAvgF,TemperatureLowF,DewpointHighF,DewpointAvgF,DewpointLowF,HumidityHigh,HumidityAvg,HumidityLow,PressureMaxIn,PressureMinIn,WindSpeedMaxMPH,WindSpeedAvgMPH,GustSpeedMaxMPH,PrecipitationSumIn
2013-4-1,37.9,26.5,17.2,23.7,7.8,3.7,59,46,27,30.30,29.57,6,3,14,0.86
2013-4-2,40.5,28.7,18.1,14.6,9.0,1.8,68,46,22,30.03,29.91,5,2,11,0.00
2013-4-3,49.5,35.9,18.5,29.1,16.9,7.0,68,48,24,30.07,29.71,6,2,15,0.00
2013-4-4,52.7,43.9,33.3,32.8,25.3,18.8,74,49,29,29.84,29.66,6,3,14,0.00
2013-4-5,44.1,34.4,24.1,29.6,19.7,11.4,83,58,28,29.92,29.59,6,2,13,0.01
2013-4-6,52.5,39.1,0.0,99.9,30.5,21.6,84,66,10,30.61,29.20,8,3,16,0.06
2013-4-7,50.4,40.9,36.1,36.2,31.4,27.3,85,69,50,30.14,29.94,4,2,11,0.11
2013-4-8,45.3,41.0,38.8,39.8,37.3,34.2,92,87,79,30.26,29.88,3,1,7,0.43
2013-4-9,46.8,38.4,33.6,34.6,28.5,19.5,84,68,50,30.38,30.18,5,2,12,0.05
2013-4-10,40.5,35.3,29.8,26.6,23.0,19.3,85,62,45,30.40,30.12,5,2,13,0.07
2013-4-11,36.0,33.3,0.0,29.8,25.7,16.9,86,72,46,30.12,29.90,5,2,11,0.08
2013-4-12,39.2,31.5,0.0,99.9,26.5,21.6,79,65,10,30.57,29.91,4,1,8,0.11
2013-4-13,38.7,31.9,26.8,26.1,21.8,15.9,85,67,52,30.12,29.98,4,1,8,0.13
2013-4-14,36.1,31.4,26.8,32.1,24.7,17.7,86,76,60,30.11,29.66,9,3,21,0.01
2013-4-15,41.2,36.2,32.5,32.2,26.5,22.5,86,68,58,30.13,29.68,8,4,19,0.04
2013-4-16,49.8,38.9,33.3,27.9,24.7,21.2,69,57,38,30.48,30.11,5,2,11,0.00
2013-4-17,41.9,36.8,33.6,32.4,26.7,22.1,85,67,58,30.48,30.05,4,2,11,0.06
2013-4-18,34.3,32.3,30.9,30.0,28.4,27.2,87,85,81,30.10,29.67,3,0,8,0.12
2013-4-19,42.8,33.5,28.2,29.2,23.2,9.0,87,68,43,30.14,29.64,8,2,18,0.08
2013-4-20,48.6,34.2,18.1,14.1,8.8,4.1,61,37,21,30.38,29.46,3,1,7,0.00
2013-4-21,48.4,39.9,32.0,44.2,31.8,13.3,91,74,42,30.02,29.72,7,3,19,0.15
2013-4-22,47.5,37.9,32.0,35.8,30.1,26.4,89,75,49,29.93,29.83,4,1,11,0.02
2013-4-23,46.8,37.2,28.4,36.4,23.5,11.3,88,61,26,29.87,29.77,4,1,10,0.02
2013-4-24,54.9,38.5,25.5,34.4,24.2,15.6,80,59,25,29.78,29.62,9,2,19,0.00
2013-4-25,56.3,42.6,31.3,30.0,25.4,17.4,80,54,25,29.92,29.69,5,2,12,0.00
2013-4-26,75.6,59.4,45.5,44.6,36.9,26.4,65,45,25,29.85,29.68,6,2,16,0.00
2013-4-27,80.4,62.0,39.6,48.9,37.3,28.5,83,46,16,29.85,29.61,5,1,9,0.00
2013-4-28,83.7,66.6,53.2,53.9,48.1,44.5,93,55,28,29.62,29.36,4,2,11,0.07
2013-4-29,76.8,63.5,47.5,57.9,45.9,34.5,97,57,28,29.55,29.28,4,1,13,0.00
2013-4-30,72.3,65.1,56.5,60.3,46.2,26.2,82,54,22,29.67,29.13,7,3,15,0.00